Zurück zum Katalog

THOR ABLESTAR DEB

AktivLEO
NORAD 463·DEBRIS·🇺🇸 United States

Gestartet Jun 29, 1961 von Cape Canaveral Space Force Station

Loading…

Nächste Überflüge (nächste 24 Stunden)

TLE

AktuellSource: Space-Track

Epoche: Sep 10, 2026, 04:06 UTC

1 00463U 61015EZ  26253.17143880  .00001471  00000-0  33892-3 0  9997
2 00463  66.7653 177.0336 0046544 199.3779 160.5566 14.57640130381511

Verfolge THOR ABLESTAR DEB in Echtzeit mit AllMySat

Download on the App Store